Location: ??????
(38.1303°N, 24.0039°E)
Time: 23:54:42
(UTC+00:00)

FALCON 9 DEB - Pass Details

Date: 20 June 2021
Orbit: 363 x 379 km, 53.0° (Epoch: 28 July)

Event Time Altitude Azimuth Distance (km) Brightness Sun altitude
Rises 02:12:49 0° 313° (NW) 2,269 6.7 -8.6°
Reaches altitude 10° 02:14:53 10° 316° (NW) 1,410 5.7 -8.3°
Maximum altitude 02:18:02 68° 41° (NE) 416 3.3 -7.8°
Drops below altitude 10° 02:21:07 10° 124° (SE) 1,392 5.9 -7.3°
Sets 02:23:10 0° 127° (SE) 2,236 6.9 -7.0°
